Regional Weather Roundup
Issued by NWS Newport/Morehead, NC

Current Version | Previous Version | Graphics & Text | Print | Product List | Glossary Off
Versions: 1 2 3 4 5 6 7 8 9 10 11 12 13 14 15 16 17 18 19 20 21 22 23 24 25 26 27 28 29 30 31 32 33 34 35 36 37 38 39 40 41 42 43 44 45 46 47 48 49 50

000
ASUS42 KMHX 170713
RWRMHX
WEATHER ROUNDUP FOR EASTERN NORTH CAROLINA
NATIONAL WEATHER SERVICE NEWPORT/MOREHEAD CITY NC
200 AM EST SAT FEB 17 2018

NOTE: "FAIR" INDICATES FEW OR NO CLOUDS BELOW 12,000 FEET
WITH NO SIGNIFICANT WEATHER AND/OR OBSTRUCTIONS TO VISIBILITY

NCZ015>017-031-032-045>047-102-103-170800-
NORTH COAST

CITY           SKY/WX    TMP DP  RH WIND       PRES   REMARKS
EDENTON        CLOUDY    51  45  80 N8        30.23R
ELIZABETH CITY CLOUDY    48  39  71 N17       30.23R
KITTY HAWK     CLOUDY    45  43  93 N9        30.21R
MANTEO         CLOUDY    47  39  75 N15G24    30.22S

$$

NCZ045>047-081-094-103-104-170800-
CENTRAL COAST

CITY           SKY/WX    TMP DP  RH WIND       PRES   REMARKS
FRISCO         CLOUDY    54  46  74 NE10G22   30.18R

$$

NCZ095-097-098-100-101-170800-
SOUTHERN COAST

CITY           SKY/WX    TMP DP  RH WIND       PRES   REMARKS
BEAUFORT       LGT RAIN  52  48  86 NE17G28   30.19R
CEDAR ISLAND   NOT AVBL
JACKSONVILLE   CLOUDY    61  51  70 NE12      30.15R
PINEY ISLAND   NOT AVBL
WILMINGTON     CLOUDY    63  46  54 N12       30.15R


$$

NCZ011>013-027>030-043-044-078>080-089-090>093-098-170800-
COASTAL PLAIN

CITY           SKY/WX    TMP DP  RH WIND       PRES   REMARKS
AHOSKIE        CLOUDY    47  39  75 N9        30.24R
CLINTON        CLOUDY    60  43  54 NE8       30.19R
ELIZABETHTOWN  NOT AVBL
GOLDSBORO      LGT RAIN  59  45  58 N7        30.17R
GREENVILLE     CLOUDY    52  50  93 NE6       30.22R
HAVELOCK       CLOUDY    54  53  97 E18G26    30.20R
KENANSVILLE    CLOUDY    59  45  58 NE7       30.19R
KINSTON        CLOUDY    55  50  84 NE12      30.20R
NEW BERN       LGT RAIN  52  50  93 NE14      30.20R
RICHLANDS      CLOUDY    60  51  72 N12       30.18R
ROCKY MOUNT    CLOUDY    53  45  74 NE14G20   30.21R
WASHINGTON     DRIZZLE   51  49  93 NE6       30.21R
WHITEVILLE     NOT AVBL

$$

AMZ130-135-150-152-154-156-158-170-250-252-270-ANZ085-086-088-633-658-670-170800-
MARINE OBSERVATIONS

STATION/POSITION TIME  TEMP    WIND        PRES    WAVE   SWELL
                       AIR SEA DIR/SP/G            HT/PER HT/PER
                 (UTC) (F)     (DEG/KT/KT) (MB)    (FT/S) (FT/S)
CHESAPEAKE LIGHT NOT AVBL
64 E VA BEACH    0650   49 50   10/ 23/ 29 1022.5    4/ 7   3/ 7
DUCK             0642   46 45   20/ 19/ 22 1022.4
2 E DUCK         0700      45                N/A     3/ 4   2/11
OREGON INLET     0642   46 56  360/ 13/ 18 1022.8
13E OREGON INLT  0648      47                N/A     3/ 8   2/ 8
HATTERAS CG      0642   53 60   30/ 17/ 24 1022.0
DIAMOND BUOY     0650   57 69   20/ 25/ 31 1022.0    6/ 6   2/10
CAPE LOOKOUT     0700           30/ 23/ 26 1022.4
BEAUFORT LAB     0642   53 55   40/ 15/ 20 1022.1
30 SE NEW RVR IN 0608   64 68   50/ 12/ 17 1020.6
30 SE NEW RVR IN 0700      68                N/A     5/ 7   2/11
27 SE WRIGHTSVLE 0608   64 64   30/  8/ 14 1019.9
5 SE WRIGHTSVLE  0608   56 52   40/  6/ 10 1020.0
225 S CAPE HAT   0650   72 72  260/ 14/ 17 1019.6    8/ 8   5/ 8
41 SE CHARLESTON 0700   69 68  250/ 14/ 17 1019.0

$$




USA.gov is the U.S. government's official web portal to all federal, state and local government web resources and services.